Home   Weather   Medford   Past weeks
Flag for USA

Past Weather in Medford, Oregon, USA — Yesterday and Last 2 Weeks

Now
67 °F

Clear.


Feels Like: 67 °F
Forecast: 87 / 59 °F
Wind: No wind

Location: Rogue Valley International Airport

Current Time: Jul 23, 2019 at 4:25:20 am

Latest Report: Jul 23, 2019 at 3:53 am


Visibility: 10 mi

Pressure: 29.98 "Hg

Humidity: 53%

Dew Point: 49 °F

Location of MedfordLocation

Past Weather in Medford — Graph

°F

Medford Temperature Yesterday

Maximum temperature yesterday: 93 °F (at 4:53 pm)
Minimum temperature yesterday: 68 °F (at 5:53 am)
Average temperature yesterday: 80 °F

High & Low Weather Summary for the Past Weeks

 TemperatureHumidityPressure
High94 °F (Jul 21, 4:53 pm)77% (Jul 19, 6:53 am)30.11 "Hg (Jul 19, 6:53 am)
Low53 °F (Jul 8, 5:53 am)13% (Jul 8, 3:53 pm)29.81 "Hg (Jul 21, 6:53 pm)
Average74 °F44%29.96 "Hg
* Reported Jul 8 2:53 am — Jul 23 2:53 am, Medford. Weather by CustomWeather, © 2019

Note: Actual official high and low records may vary slightly from our data, if they occured in-between our weather recording intervals... More about our weather records

Advertising

Medford Weather History for the Previous 24 Hours

Scroll right to see more
 ConditionsComfort  
Time TempWeatherWind HumidityBarometerVisibility
2:53 am
Tue, Jul 23
69 °FClear.5 mph49%29.98 "Hg10 mi
1:53 am71 °FClear.No wind42%29.98 "Hg10 mi
12:53 am71 °FClear.3 mph42%29.98 "Hg10 mi
11:53 pm
Mon, Jul 22
74 °FPassing clouds.3 mph37%29.97 "Hg10 mi
10:53 pm75 °FPassing clouds.7 mph34%29.97 "Hg10 mi
9:53 pm79 °FClear.7 mph30%29.96 "Hg10 mi
8:53 pm83 °FClear.8 mph26%29.93 "Hg10 mi
7:53 pm87 °FSunny.10 mph23%29.91 "Hg10 mi
7:06 pm90 °FSunny.15 mph22%29.93 "Hg10 mi
5:53 pm93 °FSunny.12 mph20%29.88 "Hg10 mi
4:53 pm93 °FSunny.14 mph20%29.88 "Hg10 mi
3:53 pm92 °FSunny.12 mph22%29.89 "Hg10 mi
2:53 pm90 °FSunny.9 mph24%29.91 "Hg10 mi
1:53 pm88 °FSunny.9 mph27%29.93 "Hg10 mi
12:53 pm85 °FScattered clouds.7 mph29%29.94 "Hg10 mi
11:53 am84 °FSunny.6 mph31%29.96 "Hg10 mi
10:53 am80 °FSunny.5 mph38%29.97 "Hg10 mi
9:53 am76 °FSunny.7 mph45%29.98 "Hg10 mi
8:53 am73 °FSunny.5 mph50%29.98 "Hg10 mi
7:53 am70 °FSunny.5 mph57%29.98 "Hg10 mi
6:53 am69 °FScattered clouds.5 mph55%29.96 "Hg10 mi
5:53 am68 °FSunny.No wind61%29.95 "Hg10 mi
4:53 am70 °FClear.5 mph57%29.94 "Hg10 mi
Weather by CustomWeather, © 2019

See weather overview